Location: Newark
(48.6461°N, 4.3644°W)
Time: 00:37:15
(UTC+00:00)

A-11 Canister half - Pass Details

Date: 03 February 2020
Orbit: 1517 x 1683 km, 47.2° (Epoch: 21 February)

Event Time Altitude Azimuth Distance (km) Brightness Sun altitude
Exits shadow 05:46:44 13° 229° (SW) 3,413 10.4 -19.7°
Drops below altitude 10° 05:49:50 10° 209° (SSW) 3,683 10.7 -19.2°
Sets 05:55:00 0° 185° (S) 4,680 11.5 -18.4°
